STARLINK-2720 (48653 NORAD) Tracking and Keplerian Element Data

This shows tracking and keplerian element data for the satellite.

Feedback or suggestion? Click here.




ElementValue
Catalog48653
NameSTARLINK-2720
Epoch Orbit1137
Epoch Day214.9749586
Epoch Year2021
RAAN102.138
Inclination53.055
Eccentricity0.0002013
Argument of Perigee91.3819
Mean Anonmoly268.7401
Mean Motion15.06393201
Decay Rate-1.002E-05
L11 48653U 21044R 21214.97495860 -.00001002 00000-0 -48341-4 0 9994
L22 48653 53.0550 102.1380 0002013 91.3819 268.7401 15.06393201 11378

Live tracking and technical data element details for STARLINK-2720 (NORAD 48653). STARLINK-2720 can be tracked NOW for your location showing map with azimuth and elevation plus other details from your city location.

Track the satellite on the map from your city or location and see movement details for azimuth, elevation, latitude, longitude, range, height, and movement on the map or in text.







IsCatalogInMostPopularTable: catalog: 48653, numindb: 15
Update: records affected: 1



GetName: 48653 STARLINK-2720

Hit Count: updated at: Tue, 03 Aug 2021 20:46:54 GMT